レモン彗星

C/2019 U6 ( Lemmon )

English version
Home page
Updated on January 6, 2021

---------------------------------------------------------------------

・ プロフィール

発見日 2019年10月31日
発見光度 20.5等
発見者 R. A. Kowalski (Mt. Lemmon Survey)

・ 写真集

・ 軌道要素

Epoch 2020 May 31.0 TT = JDT 2459000.5
T 2020 June 18.82222 TT                                 Rudenko
q   0.9142590            (2000.0)            P               Q
z  +0.0022978      Peri.  329.65983     -0.68858810     +0.06104186
 +/-0.0000006      Node   235.70556     -0.35183616     -0.89942922
e   0.9978992      Incl.   61.00133     -0.63408023     +0.43278282
From 922 observations 2018 Nov. 6-2020 Oct. 17, mean residual 0".6.

・ 星図

・ 光度変化

        H = 14.0  G = 0.15                       [    ,-231]  (              〜2019年10月31日)
        m1 = 7.0 + 5 logΔ + 20.0 log r(t + 10)  [-231,  33]  (2019年10月31日〜2020年 7月21日)
        m1 = 8.0 + 5 logΔ + 13.0 log r          [  33,    ]  (2020年 7月21日〜              )

---------------------------------------------------------------------

軌道要素はM.P.E.C. 2020-U96に掲載されたものです。
星図はステラナビゲータ Ver.10 (アストロアーツ) で作成したものです。
光度グラフはComet for Windowsで作成したものです。

---------------------------------------------------------------------

Copyright(C) Seiichi Yoshida (comet@aerith.net). All rights reserved.